Regional Weather Roundup
Issued by NWS

Home | Current Version | Previous Version | Graphics & Text | Print | Product List | Glossary On
Versions: 1 2 3 4 5 6 7 8 9 10 11 12 13 14 15 16 17 18 19 20 21 22 23 24 25 26 27 28 29 30 31 32 33 34 35 36 37 38 39 40 41 42 43 44 45 46 47 48 49 50
671
ASUS45 KBOI 050510
RWRID

IDAHO REGIONAL WEATHER ROUNDUP
NATIONAL WEATHER SERVICE BOISE ID
1100 PM MDT WED MAY 04 2016

NOTE: "FAIR" INDICATES FEW OR NO CLOUDS BELOW 12000 FEET
WITH NO SIGNIFICANT WEATHER AND/OR OBSTRUCTIONS TO VISIBILITY

IDZ012-014-050600-
SOUTHWEST IDAHO


CITY           SKY/WX    TMP DP  RH WIND       PRES   REMARKS
BOISE          PTCLDY    68  37  32 S17G24    29.82R
CALDWELL       PTCLDY    65  48  54 W7        29.79R
MOUNTAIN HOME  MOCLDY    69  39  33 CALM      29.81R
$$

IDZ016-017-050600-
SOUTHCENTRAL IDAHO


CITY           SKY/WX    TMP DP  RH WIND       PRES   REMARKS
BURLEY         CLOUDY    57  43  59 CALM      29.92F
JEROME         CLOUDY    64  35  34 E9        29.91S
TWIN FALLS     CLOUDY    62  33  33 SE13      29.91R
$$

IDZ019>023-050600-
SOUTHEAST IDAHO


CITY           SKY/WX    TMP DP  RH WIND       PRES   REMARKS
IDAHO FALLS    CLOUDY    53  36  52 CALM      30.01S
POCATELLO      CLOUDY    59  37  44 E3        29.98F
REXBURG        CLOUDY    62  31  31 SE5       30.02S
$$

IDZ006-010-011-018-031-032-050600-
CENTRAL IDAHO MOUNTAINS


CITY           SKY/WX    TMP DP  RH WIND       PRES   REMARKS
MCCALL         MOCLDY    54  36  50 N6        29.93S
HAILEY         CLEAR     54  39  58 NW6       30.02R
STANLEY          N/A     48  32  53 SE6       30.05S
SALMON         CLOUDY    59  34  38 CALM      29.89S
CHALLIS        CLOUDY    55  29  36 CALM      29.98R
$$

IDZ002-004-006-007-026-050600-
NORTHERN IDAHO


CITY           SKY/WX    TMP DP  RH WIND       PRES   REMARKS
LEWISTON       MOCLDY    70  49  47 NW21G36   29.82R
LOWELL           N/A     59  53  80 CALM      29.82R
COEUR D`ALENE  PTCLDY    61  48  63 CALM      29.80S
MULLAN PASS    CLOUDY    56  32  40 SE5       29.98F
$$




USA.gov is the U.S. government's official web portal to all federal, state and local government web resources and services.